Location: Iesi
(43.5167°N, 13.2333°E)
Time: 02:23:34
(UTC+00:00)

Cosmos 405 - Pass Details

Date: 08 August 2020
Orbit: 450 x 464 km, 81.3° (Epoch: 19 September)

Event Time Altitude Azimuth Distance (km) Brightness Sun altitude
Rises 18:49:23 0° 344° (NNW) 2,472 7.4 -5.6°
Reaches altitude 10° 18:51:31 10° 338° (NNW) 1,593 6.5 -6.0°
Maximum altitude 18:54:51 45° 264° (W) 627 4.1 -6.5°
Drops below altitude 10° 18:58:09 10° 191° (S) 1,577 5.5 -7.0°
Sets 19:00:15 0° 185° (S) 2,444 6.4 -7.3°
